This is the latest recevied weather packets stored in our database for station/object K8FJG-13. If no packets are shown the sender has not sent any weather packets the latest 10 day(s).
| Time | Temp. | Humidity | Pressure | Rain* | Wind** | Luminosity | Snow |
|---|---|---|---|---|---|---|---|
| 1777900791 | 13.89° C | 58% | 964.1 hPa | - | - | - | - |
| 1777900188 | 13.33° C | 59% | 964.2 hPa | - | - | - | - |
| 1777899585 | 13.33° C | 59% | 964.2 hPa | - | - | - | - |
| 1777898982 | 12.78° C | 61% | 964.2 hPa | - | - | - | - |
| 1777898379 | 12.78° C | 60% | 964.2 hPa | - | - | - | - |
| 1777897775 | 12.22° C | 60% | 964.1 hPa | - | - | - | - |
| 1777897172 | 11.67° C | 62% | 964.2 hPa | - | - | - | - |
| 1777896569 | 11.11° C | 63% | 964.2 hPa | - | - | - | - |
| 1777895966 | 11.11° C | 63% | 964.1 hPa | - | - | - | - |
| 1777895363 | 10.56° C | 65% | 964 hPa | - | - | - | - |
| 1777894760 | 10° C | 66% | 963.9 hPa | - | - | - | - |
| 1777894157 | 10° C | 67% | 964 hPa | - | - | - | - |
| 1777893554 | 9.44° C | 67% | 963.9 hPa | - | - | - | - |
| 1777892951 | 9.44° C | 67% | 963.8 hPa | - | - | - | - |
| 1777892347 | 8.89° C | 68% | 963.7 hPa | - | - | - | - |
| 1777891744 | 8.89° C | 68% | 963.7 hPa | - | - | - | - |
| 1777891141 | 8.89° C | 67% | 963.7 hPa | - | - | - | - |
| 1777890538 | 8.89° C | 67% | 963.6 hPa | - | - | - | - |
| 1777889935 | 8.89° C | 68% | 963.6 hPa | - | - | - | - |
| 1777889332 | 8.89° C | 67% | 963.7 hPa | - | - | - | - |
| 1777888729 | 8.89° C | 67% | 963.7 hPa | - | - | - | - |
| 1777888126 | 8.89° C | 67% | 963.7 hPa | - | - | - | - |
| 1777887523 | 8.89° C | 66% | 963.8 hPa | - | - | - | - |
| 1777886920 | 8.89° C | 66% | 963.8 hPa | - | - | - | - |
| 1777886316 | 9.44° C | 65% | 964 hPa | - | - | - | - |
* Rain since midnight (hover to see other rain measurements)
** Current wind speed in m/s (hover to see current wind gust speed)